Fayetteville, AR

9:22 AM CST on January 22, 2018 (GMT -0600)
Drake

Weather History for KFYV - April, 2013

Change the Weather History Date:

Thursday, April 18, 2013

  Actual Average Record
Temperature  
Mean Temperature 56 °F 58 °F  
Max Temperature 74 °F 70 °F 91 °F (2006)
Min Temperature 37 °F 45 °F 28 °F (1953)
Degree Days  
Heating Degree Days 9 8  
Month to date heating degree days 174 189  
Since 1 July heating degree days 3890 4018  
Cooling Degree Days 0 1  
Month to date cooling degree days 28 15  
Year to date cooling degree days 29 19  
Growing Degree Days 6 (Base 50)    
Moisture  
Dew Point 52 °F    
Average Humidity 83    
Maximum Humidity 100    
Minimum Humidity 65    
Precipitation  
Precipitation 1.61 in 0.15 in 1.61 in (2013)
Month to date precipitation 3.81 2.57  
Year to date precipitation 14.14 12.17  
Sea Level Pressure  
Sea Level Pressure 29.72 in    
Wind  
Wind Speed 14 mph (WSW)    
Max Wind Speed 31 mph    
Max Gust Speed 43 mph    
Visibility 8 miles    
Events Fog , Rain , Thunderstorm    
T = Trace of Precipitation, MM = Missing Value Source: NWS Daily Summary

Daily Weather History Graph

Daily Weather History Graph

Search for Another Location

Airport or City:

Trip Planner

Search our weather history database for the weather conditions in past years. The results will help you decide how hot, cold, wet, or windy it might be!

Date:

Astronomy

Apr. 18, 2013 Rise Set
Actual Time 6:39 AM CDT 7:53 PM CDT
Civil Twilight 6:12 AM CDT 8:19 PM CDT
Nautical Twilight 5:41 AM CDT 8:51 PM CDT
Astronomical Twilight 5:08 AM CDT 9:24 PM CDT
Moon 12:53 PM CDT (4/18) 2:05 AM CDT (4/18)
Length of Visible Light 14h 07m
Length of Day
13h 13m
First Quarter, 52% of the Moon is Illuminated
Apr 18
First Quarter
Apr 25
Full
May 2
Last Quarter
May 9
New
May 17
First Quarter

Hourly Weather History & Observations

Time (CDT) Temp. Windchill Dew Point Humidity Pressure Visibility Wind Dir Wind Speed Gust Speed Precip Events Conditions
12:07 AM 73.4 °F - 64.4 °F 73% 29.66 in 7.0 mi SSE 15.0 mph 23.0 mph 0.02 in Rain , Thunderstorm Light Thunderstorms and Rain
12:30 AM 73.4 °F - 64.4 °F 73% 29.64 in 10.0 mi SSE 15.0 mph 28.8 mph 0.03 in Rain Light Rain
12:37 AM 73.4 °F - 64.4 °F 73% 29.64 in 10.0 mi SSE 15.0 mph 27.6 mph 0.03 in Rain , Thunderstorm Light Rain
12:53 AM 73.9 °F - 64.0 °F 71% 29.57 in 10.0 mi SSE 16.1 mph 29.9 mph 0.03 in Rain Light Rain
1:53 AM 73.9 °F - 64.0 °F 71% 29.52 in 10.0 mi South 28.8 mph 40.3 mph 0.00 in   Mostly Cloudy
2:53 AM 73.9 °F - 64.0 °F 71% 29.54 in 10.0 mi South 21.9 mph 28.8 mph N/A   Overcast
3:30 AM 73.4 °F - 62.6 °F 69% 29.58 in 10.0 mi SSE 21.9 mph 33.4 mph N/A Thunderstorm Overcast
3:46 AM 73.4 °F - 62.6 °F 69% 29.58 in 10.0 mi South 19.6 mph 34.5 mph N/A   Overcast
3:53 AM 72.0 °F - 64.0 °F 76% 29.53 in 8.0 mi South 17.3 mph 27.6 mph 0.02 in Rain , Thunderstorm Light Rain
4:53 AM 69.1 °F - 66.9 °F 93% 29.55 in 10.0 mi South 8.1 mph - 0.11 in Thunderstorm Thunderstorm
5:53 AM 69.1 °F - 66.0 °F 90% 29.52 in 6.0 mi SSE 13.8 mph 19.6 mph 0.06 in Rain , Thunderstorm Light Thunderstorms and Rain
5:59 AM 68.0 °F - 66.2 °F 94% 29.59 in 1.5 mi West 26.5 mph 40.3 mph 0.21 in Rain , Thunderstorm Heavy Thunderstorms and Rain
6:04 AM 64.4 °F - 64.4 °F 100% 29.58 in 0.5 mi West 11.5 mph 40.3 mph 0.42 in Fog , Rain , Thunderstorm Heavy Thunderstorms and Rain
6:17 AM 66.2 °F - 66.2 °F 100% 29.59 in 1.0 mi SW 10.4 mph - 0.77 in Rain , Thunderstorm Heavy Thunderstorms and Rain
6:36 AM 66.2 °F - 66.2 °F 100% 29.62 in 3.0 mi WSW 13.8 mph 23.0 mph 0.94 in Rain , Thunderstorm Rain
6:47 AM 64.4 °F - 64.4 °F 100% 29.63 in 3.0 mi WSW 15.0 mph 20.7 mph 0.99 in Rain , Thunderstorm Heavy Rain
6:53 AM 64.0 °F - 64.0 °F 100% 29.62 in 4.0 mi WSW 16.1 mph 20.7 mph 1.02 in Rain , Thunderstorm Heavy Rain
7:08 AM 60.8 °F - 60.8 °F 100% 29.67 in 4.0 mi WSW 18.4 mph 28.8 mph 0.09 in Rain Rain
7:18 AM 59.0 °F - 59.0 °F 100% 29.68 in 4.0 mi West 17.3 mph 27.6 mph 0.13 in Rain Rain
7:28 AM 57.2 °F - 57.2 °F 100% 29.68 in 2.5 mi WSW 12.7 mph - 0.17 in Rain Light Rain
7:36 AM 57.2 °F - 57.2 °F 100% 29.67 in 6.0 mi West 11.5 mph - 0.19 in Rain Light Rain
7:53 AM 55.9 °F - 55.9 °F 100% 29.65 in 10.0 mi WSW 8.1 mph - 0.20 in Rain Light Rain
8:02 AM 55.4 °F - 55.4 °F 100% 29.69 in 10.0 mi WSW 10.4 mph - 0.00 in Rain Light Rain
8:53 AM 51.1 °F - 51.1 °F 100% 29.70 in 5.0 mi West 20.7 mph 28.8 mph 0.08 in Rain Rain
9:53 AM 48.0 °F - 48.0 °F 100% 29.75 in 8.0 mi West 17.3 mph 25.3 mph 0.07 in Rain Light Rain
10:53 AM 44.1 °F 37.4 °F 44.1 °F 100% 29.81 in 10.0 mi West 13.8 mph 24.2 mph 0.04 in Rain Light Rain
11:53 AM 42.1 °F 36.6 °F 42.1 °F 100% 29.81 in 10.0 mi West 9.2 mph 18.4 mph 0.01 in Rain Light Rain
12:53 PM 41.0 °F 34.3 °F 41.0 °F 100% 29.81 in 10.0 mi WNW 11.5 mph - 0.00 in   Overcast
1:53 PM 39.9 °F 31.1 °F 37.9 °F 93% 29.83 in 10.0 mi WNW 17.3 mph 21.9 mph N/A   Overcast
2:53 PM 41.0 °F 33.9 °F 37.0 °F 86% 29.86 in 10.0 mi WNW 12.7 mph 26.5 mph N/A   Overcast
3:53 PM 42.1 °F 37.1 °F 37.0 °F 82% 29.86 in 10.0 mi NW 8.1 mph 17.3 mph N/A   Overcast
4:53 PM 42.1 °F 36.1 °F 35.1 °F 76% 29.88 in 10.0 mi NW 10.4 mph 20.7 mph N/A   Overcast
5:53 PM 41.0 °F 32.8 °F 34.0 °F 76% 29.91 in 10.0 mi NW 16.1 mph 23.0 mph N/A   Overcast
6:53 PM 41.0 °F 34.7 °F 33.1 °F 73% 29.93 in 10.0 mi WNW 10.4 mph 16.1 mph N/A   Overcast
7:53 PM 41.0 °F 35.8 °F 33.1 °F 73% 29.94 in 10.0 mi WNW 8.1 mph - N/A   Overcast
8:53 PM 41.0 °F 32.8 °F 30.9 °F 67% 29.97 in 10.0 mi NW 16.1 mph 24.2 mph N/A   Overcast
9:53 PM 39.9 °F 32.9 °F 30.0 °F 68% 30.01 in 10.0 mi NW 11.5 mph - N/A   Overcast
10:53 PM 39.0 °F 31.8 °F 30.0 °F 70% 30.02 in 10.0 mi WNW 11.5 mph 18.4 mph N/A   Overcast
11:53 PM 37.9 °F 29.2 °F 28.0 °F 68% 30.02 in 10.0 mi WNW 15.0 mph 23.0 mph N/A   Overcast